Stanton, MN

11:14 AM CDT on May 22, 2017 (GMT -0500)
Stanton

Weather History for KSYN - October, 2011

Change the Weather History Date:

Friday, October 28, 2011

  Actual Average (KLVN) Record (KLVN)
Temperature  
Mean Temperature 41 °F -  
Max Temperature 55 °F 52 °F 76 °F (1948)
Min Temperature 27 °F 33 °F 17 °F (1967)
Degree Days  
Heating Degree Days 24    
Moisture  
Dew Point 25 °F    
Average Humidity 53    
Maximum Humidity 86    
Minimum Humidity 27    
Precipitation  
Precipitation 0.00 in - - ()
Sea Level Pressure  
Sea Level Pressure 30.02 in    
Wind  
Wind Speed 7 mph (WSW)    
Max Wind Speed 17 mph    
Max Gust Speed 23 mph    
Visibility 10 miles    
Events Rain    
Averages and records for this station are not official NWS values.
T = Trace of Precipitation, MM = Missing Value Source: NWS Daily Summary

Daily Weather History Graph

Daily Weather History Graph

Search for Another Location

Airport or City:

Trip Planner

Search our weather history database for the weather conditions in past years. The results will help you decide how hot, cold, wet, or windy it might be!

Date:

Astronomy

Oct. 28, 2011 Rise Set
Actual Time 7:43 AM CDT 6:07 PM CDT
Civil Twilight 7:13 AM CDT 6:37 PM CDT
Nautical Twilight 6:39 AM CDT 7:11 PM CDT
Astronomical Twilight 6:05 AM CDT 7:45 PM CDT
Moon 10:07 AM CDT (10/28) 7:23 PM CDT (10/28)
Length of Visible Light 11h 23m
Length of Day
10h 23m
Waxing Crescent, 5% of the Moon is Illuminated
Oct 28
Waxing Crescent
Nov 2
First Quarter
Nov 10
Full
Nov 18
Last Quarter
Nov 25
New

Hourly Weather History & Observations

Time (CDT) Temp. Windchill Dew Point Humidity Pressure Visibility Wind Dir Wind Speed Gust Speed Precip Events Conditions
12:13 AM 27.3 °F 22.0 °F 23.0 °F 84% 30.08 in 10.0 mi SSW 4.6 mph - N/A   Clear
12:34 AM 27.3 °F - 23.2 °F 84% 30.07 in 10.0 mi Calm Calm - N/A   Clear
12:53 AM 27.5 °F 22.2 °F 23.4 °F 84% 30.08 in 10.0 mi SSW 4.6 mph - N/A   Clear
1:13 AM 27.0 °F 20.5 °F 23.4 °F 86% 30.07 in 10.0 mi SSW 5.8 mph - N/A   Clear
1:34 AM 27.0 °F 21.6 °F 22.5 °F 83% 30.07 in 10.0 mi SSW 4.6 mph - N/A   Clear
1:54 AM 28.2 °F 24.4 °F 23.0 °F 81% 30.07 in 10.0 mi South 3.5 mph - N/A   Clear
2:13 AM 28.4 °F 24.6 °F 22.8 °F 80% 30.07 in 10.0 mi South 3.5 mph - N/A   Clear
2:34 AM 28.6 °F 23.5 °F 23.4 °F 81% 30.07 in 10.0 mi South 4.6 mph - N/A   Scattered Clouds
3:13 AM 35.2 °F 30.3 °F 25.7 °F 68% 30.07 in 10.0 mi South 5.8 mph - N/A   Scattered Clouds
3:34 AM 35.6 °F 31.7 °F 25.5 °F 67% 30.06 in 10.0 mi South 4.6 mph - N/A   Scattered Clouds
3:53 AM 35.1 °F 28.6 °F 25.7 °F 69% 30.06 in 10.0 mi South 8.1 mph - N/A   Scattered Clouds
4:14 AM 34.7 °F 28.1 °F 25.7 °F 70% 30.06 in 10.0 mi South 8.1 mph - N/A   Scattered Clouds
4:34 AM 34.0 °F 27.2 °F 25.5 °F 71% 30.05 in 10.0 mi South 8.1 mph - N/A   Clear
4:53 AM 34.3 °F 27.7 °F 25.5 °F 70% 30.04 in 10.0 mi South 8.1 mph - N/A   Scattered Clouds
5:14 AM 35.2 °F 28.8 °F 25.7 °F 68% 30.04 in 10.0 mi South 8.1 mph - N/A   Mostly Cloudy
5:34 AM 36.3 °F 30.8 °F 25.7 °F 65% 30.03 in 10.0 mi South 6.9 mph - N/A   Mostly Cloudy
5:53 AM 36.5 °F 31.0 °F 25.7 °F 65% 30.03 in 10.0 mi South 6.9 mph - N/A   Mostly Cloudy
6:14 AM 36.9 °F 30.7 °F 26.2 °F 65% 30.02 in 10.0 mi South 8.1 mph - N/A   Mostly Cloudy
6:53 AM 37.9 °F 32.1 °F 25.5 °F 61% 30.01 in 10.0 mi South 8.1 mph - N/A   Mostly Cloudy
7:14 AM 38.5 °F 35.0 °F 25.3 °F 59% 30.01 in 10.0 mi South 4.6 mph - N/A   Overcast
7:34 AM 38.8 °F 36.5 °F 25.5 °F 59% 30.01 in 10.0 mi SSW 3.5 mph - N/A   Overcast
7:53 AM 38.8 °F 33.8 °F 25.2 °F 58% 30.00 in 10.0 mi South 6.9 mph - N/A   Overcast
8:14 AM 38.7 °F 36.3 °F 25.5 °F 59% 30.01 in 10.0 mi South 3.5 mph - N/A   Overcast
8:34 AM 38.5 °F - 26.4 °F 62% 30.01 in 10.0 mi Calm Calm - N/A   Overcast
8:53 AM 40.6 °F 38.6 °F 26.2 °F 57% 30.02 in 10.0 mi WSW 3.5 mph - N/A   Overcast
9:13 AM 41.9 °F 36.9 °F 26.8 °F 55% 30.02 in 10.0 mi SSW 8.1 mph - N/A   Overcast
9:34 AM 42.3 °F 37.9 °F 26.6 °F 54% 30.03 in 10.0 mi SW 6.9 mph - N/A   Overcast
9:53 AM 42.8 °F 38.0 °F 25.9 °F 51% 30.03 in 10.0 mi SW 8.1 mph - N/A Rain Light Rain
10:14 AM 41.4 °F 38.4 °F 27.9 °F 59% 30.02 in 10.0 mi SSW 4.6 mph - N/A   Scattered Clouds
10:33 AM 43.7 °F 39.1 °F 27.7 °F 53% 30.02 in 10.0 mi SSW 8.1 mph - N/A   Scattered Clouds
10:54 AM 45.5 °F 43.2 °F 26.8 °F 48% 30.02 in 10.0 mi West 4.6 mph - N/A   Scattered Clouds
11:14 AM 46.6 °F - 26.6 °F 46% 30.02 in 10.0 mi West 9.2 mph - N/A   Scattered Clouds
11:33 AM 47.7 °F - 27.1 °F 45% 30.03 in 10.0 mi West 6.9 mph - N/A   Clear
12:13 PM 51.4 °F - 29.7 °F 43% 30.03 in 10.0 mi NW 12.7 mph 17.3 mph N/A   Scattered Clouds
12:34 PM 52.0 °F - 29.5 °F 42% 30.02 in 10.0 mi NW 8.1 mph - N/A   Scattered Clouds
12:54 PM 51.4 °F - 28.9 °F 42% 30.02 in 10.0 mi NNW 15.0 mph 18.4 mph N/A   Scattered Clouds
1:13 PM 53.2 °F - 29.1 °F 40% 30.01 in 10.0 mi NNW 10.4 mph 16.1 mph N/A   Scattered Clouds
1:34 PM 54.7 °F - 28.2 °F 36% 30.01 in 10.0 mi NW 11.5 mph - N/A   Scattered Clouds
1:53 PM 54.9 °F - 26.8 °F 34% 30.00 in 10.0 mi NW 11.5 mph 21.9 mph N/A   Mostly Cloudy
2:13 PM 54.9 °F - 27.5 °F 35% 29.99 in 10.0 mi NNW 12.7 mph - N/A   Mostly Cloudy
2:34 PM 53.8 °F - 28.9 °F 39% 30.00 in 10.0 mi NNW 13.8 mph - N/A   Mostly Cloudy
2:54 PM 53.2 °F - 28.2 °F 38% 29.99 in 10.0 mi NW 17.3 mph - N/A   Scattered Clouds
3:13 PM 55.0 °F - 22.8 °F 29% 29.99 in 10.0 mi WNW 13.8 mph 19.6 mph N/A   Scattered Clouds
3:34 PM 54.5 °F - 20.8 °F 27% 29.99 in 10.0 mi NW 15.0 mph 19.6 mph N/A   Scattered Clouds
3:53 PM 54.1 °F - 20.3 °F 27% 29.99 in 10.0 mi WNW 17.3 mph 23.0 mph N/A   Clear
4:13 PM 53.6 °F - 19.9 °F 27% 29.99 in 10.0 mi WNW 15.0 mph 23.0 mph N/A   Clear
4:34 PM 53.4 °F - 20.3 °F 27% 29.99 in 10.0 mi NW 12.7 mph 23.0 mph N/A   Clear
4:54 PM 53.1 °F - 20.8 °F 28% 29.99 in 10.0 mi NW 13.8 mph - N/A   Clear
5:13 PM 52.2 °F - 20.5 °F 29% 30.00 in 10.0 mi WNW 16.1 mph - N/A   Clear
5:34 PM 50.7 °F - 21.2 °F 31% 29.99 in 10.0 mi WNW 9.2 mph - N/A   Clear
5:53 PM 48.2 °F - 21.6 °F 35% 29.99 in 10.0 mi NW 4.6 mph - N/A   Clear
6:13 PM 46.6 °F - 21.9 °F 38% 30.00 in 10.0 mi West 5.8 mph - N/A   Clear
6:34 PM 45.3 °F 43.0 °F 22.1 °F 40% 30.00 in 10.0 mi West 4.6 mph - N/A   Clear
6:53 PM 43.0 °F 40.3 °F 21.9 °F 43% 30.01 in 10.0 mi WNW 4.6 mph - N/A   Clear
7:14 PM 42.8 °F 39.3 °F 21.9 °F 44% 30.01 in 10.0 mi WNW 5.8 mph - N/A   Clear
7:34 PM 41.0 °F 37.1 °F 21.9 °F 47% 30.02 in 10.0 mi WNW 5.8 mph - N/A   Clear
7:53 PM 41.9 °F 38.2 °F 22.1 °F 45% 30.02 in 10.0 mi West 5.8 mph - N/A   Clear
8:14 PM 41.7 °F 38.0 °F 22.1 °F 46% 30.02 in 10.0 mi West 5.8 mph - N/A   Clear
8:33 PM 41.5 °F 37.8 °F 22.5 °F 47% 30.02 in 10.0 mi West 5.8 mph - N/A   Clear
8:54 PM 39.2 °F 35.0 °F 23.0 °F 52% 30.02 in 10.0 mi West 5.8 mph - N/A   Clear
9:14 PM 38.8 °F 34.6 °F 23.0 °F 53% 30.02 in 10.0 mi West 5.8 mph - N/A   Clear
9:33 PM 37.9 °F 35.5 °F 23.0 °F 55% 30.02 in 10.0 mi West 3.5 mph - N/A   Clear
9:54 PM 36.0 °F 33.3 °F 23.0 °F 59% 30.02 in 10.0 mi WSW 3.5 mph - N/A   Clear
10:14 PM 35.2 °F 32.4 °F 23.5 °F 62% 30.02 in 10.0 mi SSW 3.5 mph - N/A   Clear
10:33 PM 34.9 °F 32.0 °F 23.2 °F 62% 30.03 in 10.0 mi SW 3.5 mph - N/A   Clear
10:54 PM 34.7 °F 30.6 °F 23.4 °F 63% 30.02 in 10.0 mi SW 4.6 mph - N/A   Clear
11:13 PM 31.6 °F 28.3 °F 22.5 °F 69% 30.02 in 10.0 mi SSW 3.5 mph - N/A   Clear
11:34 PM 31.3 °F 27.9 °F 22.5 °F 70% 30.02 in 10.0 mi SSW 3.5 mph - N/A   Clear
11:53 PM 31.6 °F 28.3 °F 22.3 °F 68% 30.02 in 10.0 mi SSW 3.5 mph - N/A   Clear